Voltar ao catálogo

CZ-6A DEB

AtivoPO
NORAD 60964·DEBRIS·🇨🇳 China

Lançado Aug 6, 2024 de Taiyuan Satellite Launch Center

Loading…

Próximas Passagens (próximas 24 horas)

TLE

AtualizadoSource: Space-Track

Época: Sep 14, 2026, 23:26 UTC

1 60964U 24140LP  26257.97674292  .00000227  00000-0  81383-4 0  9992
2 60964  89.0422 267.3155 0008099  23.6820 336.4747 14.30694212108003

Acompanhe CZ-6A DEB em tempo real com AllMySat

Download on the App Store